Voltar ao catálogo

SL-8 DEB

AtivoLEO
NORAD 21160·DEBRIS·🇷🇺 Russia

Lançado Feb 12, 1991 de Plesetsk Cosmodrome

Loading…

Próximas Passagens (próximas 24 horas)

TLE

AtualizadoSource: Space-Track

Época: Sep 14, 2026, 12:18 UTC

1 21160U 91009X   26257.51301931 -.00000011  00000-0  39610-4 0  9990
2 21160  74.0392 288.4295 0131710 338.9484 175.1192 12.24771983588468

Acompanhe SL-8 DEB em tempo real com AllMySat

Download on the App Store